[[{"header":{"parameterUnit":"m.s-1","parameterCategory":1,"la1":30.2991,"la2":30.254,"lo1":-89.0895,"lo2":-89.0444,"dy":0.0017,"dx":0.0017,"nx":28,"ny":28,"refTime":"2024-04-25T03:00:00:Z","depth":0,"parameterNumber":2,"parameterNumberName":"U-component_of_WINDS"},"data":[0,0,0,0,0,0,0,0,0,0,0,0,0,0,0,0,0,0,0,0,0,0,0,0,0,0,0,0,0,0,0,0,0,0,0,0,0,0,0,0,0,0,0,0,0,0,0,0,0,0,0,0,0,0,0,0,0,0,-1.1385,-1.1385,0,-1.1372,-1.1372,-1.1372,-1.1352,-1.1351,-1.1351,-1.1351,-1.1337,-1.1337,-1.1337,0,0,0,0,0,0,0,0,0,0,0,0,0,-1.1394,-1.1394,-1.1385,-1.1385,-1.1385,-1.1372,-1.1372,-1.1372,-1.1352,-1.1351,-1.1351,-1.135,-1.1337,-1.1337,-1.1337,0,0,0,0,0,0,0,0,0,0,0,0,0,-1.1386,-1.1394,-1.1385,-1.1373,-1.1372,-1.1372,-1.1372,-1.1372,-1.1352,-1.1351,-1.1351,-1.135,-1.1337,-1.1337,-1.1337,-1.1347,0,0,-1.1336,-1.1336,0,0,0,0,0,0,0,0,-1.1387,-1.1386,-1.1375,-1.1374,-1.1373,-1.1363,-1.137,-1.1363,-1.1352,-1.136,-1.1351,-1.135,-1.1346,-1.1345,-1.1344,-1.1346,-1.1345,-1.1336,-1.1336,-1.1336,-1.1336,0,0,0,0,0,0,0,-1.1387,-1.1386,-1.138,-1.1375,-1.1374,-1.1369,-1.1367,-1.1368,-1.1356,-1.1359,-1.1357,-1.1356,-1.1345,-1.1344,-1.1343,-1.1345,-1.1336,-1.1336,-1.1336,-1.1336,-1.1356,-1.1357,0,0,0,0,0,0,-1.1389,-1.1387,-1.138,-1.1379,-1.1379,-1.1369,-1.1367,-1.1367,-1.1356,-1.1354,-1.1357,-1.1355,-1.1344,-1.1343,-1.1343,-1.1354,-1.1336,-1.1336,-1.1336,-1.1356,-1.1356,-1.1357,0,0,0,0,0,0,-1.139,-1.1389,-1.1381,-1.1383,-1.1381,-1.137,-1.1369,-1.1367,-1.1365,-1.1354,-1.1352,-1.1357,-1.1344,-1.1343,-1.1346,-1.1353,-1.1336,-1.1336,-1.1355,-1.1356,-1.1357,-1.1377,0,0,0,0,0,0,-1.139,-1.1389,-1.1393,-1.1383,-1.1381,-1.1384,-1.1369,-1.1367,-1.1365,-1.1363,-1.1354,-1.1352,-1.1343,-1.1346,-1.1346,-1.1353,-1.1336,-1.1354,-1.1356,-1.1357,-1.1376,-1.1379,-1.1381,0,0,0,0,0,-1.139,-1.1399,-1.1393,-1.1392,-1.1386,-1.1385,-1.1384,-1.1373,-1.1366,-1.137,-1.1363,-1.1352,-1.1353,-1.1347,-1.1346,-1.1353,-1.1354,-1.1355,-1.1356,-1.1375,-1.1378,-1.1381,0,0,0,0,0,0,-1.1409,-1.1397,-1.1391,-1.1396,-1.1392,-1.1382,-1.1386,-1.1377,-1.1375,-1.1373,-1.136,-1.1358,-1.1364,-1.1359,-1.1352,-1.1363,-1.1352,-1.1353,-1.1366,-1.1369,-1.1372,-1.1372,-1.1336,0,0,0,0,0,-1.1414,-1.1414,-1.1404,-1.141,-1.1408,-1.1397,-1.1397,-1.1389,-1.1384,-1.1382,-1.1375,-1.137,-1.137,-1.1369,-1.1368,-1.1375,-1.1373,-1.138,-1.1383,-1.1385,-1.1386,-1.139,-1.1393,-1.1361,-1.1361,-1.1361,0,0,-1.1424,-1.1417,-1.1418,-1.1413,-1.1409,-1.141,-1.1396,-1.1397,-1.1398,-1.1382,-1.1385,-1.138,-1.1374,-1.138,-1.1382,-1.1376,-1.1395,-1.1387,-1.1388,-1.1388,-1.1392,-1.1395,-1.1398,-1.1362,-1.1362,-1.1362,0,0,-1.1442,-1.1437,-1.1442,-1.1438,-1.1432,-1.1425,-1.1426,-1.1418,-1.1414,-1.1417,-1.1405,-1.1406,-1.1404,-1.1401,-1.1399,-1.1418,-1.1408,-1.1418,-1.1431,-1.1436,-1.1438,-1.144,-1.1447,-1.145,-1.1419,-1.1419,-1.1419,0,-1.1455,-1.1456,-1.1445,-1.1448,-1.1446,-1.1433,-1.1437,-1.1434,-1.1428,-1.1427,-1.1421,-1.142,-1.1414,-1.142,-1.1424,-1.1423,-1.1424,-1.1418,-1.1439,-1.1441,-1.1443,-1.1449,-1.1452,-1.142,-1.142,-1.142,-1.142,0,-1.1472,-1.1473,-1.1478,-1.1473,-1.1472,-1.1475,-1.1465,-1.1466,-1.1459,-1.1453,-1.1456,-1.145,-1.1447,-1.1448,-1.1441,-1.1453,-1.1449,-1.1441,-1.1429,-1.1447,-1.1453,-1.1455,-1.1422,-1.1421,-1.1421,-1.1421,0,0,-1.1501,-1.1491,-1.1493,-1.149,-1.1483,-1.1484,-1.1487,-1.1485,-1.1486,-1.1482,-1.1485,-1.1485,-1.1478,-1.1475,-1.1468,-1.1472,-1.1488,-1.1463,-1.1463,-1.1468,-1.1501,-1.1507,-1.151,-1.1482,-1.1482,-1.1483,-1.1501,0,-1.1518,-1.1523,-1.1514,-1.1521,-1.1522,-1.151,-1.1513,-1.1509,-1.1504,-1.1505,-1.1499,-1.1499,-1.1489,-1.1488,-1.1491,-1.1485,-1.1494,-1.1484,-1.1484,-1.1485,-1.1486,-1.1513,-1.1519,-1.1537,-1.1503,-1.1504,-1.1504,0,-1.1538,-1.1536,-1.1543,-1.1537,-1.1537,-1.154,-1.1538,-1.1538,-1.1534,-1.153,-1.1528,-1.152,-1.1523,-1.1512,-1.1517,-1.151,-1.151,-1.1507,-1.1508,-1.1507,-1.1495,-1.1513,-1.1542,-1.1545,-1.1508,-1.1507,-1.1507,0,-1.1558,-1.1558,-1.1562,-1.1561,-1.1553,-1.1555,-1.1552,-1.1548,-1.1547,-1.1546,-1.1545,-1.1544,-1.1543,-1.1542,-1.1534,-1.1527,-1.154,-1.1528,-1.1537,-1.1537,-1.1539,-1.1539,-1.1569,-1.154,-1.154,-1.154,-1.154,0,-1.1578,-1.1583,-1.1571,-1.1574,-1.158,-1.157,-1.1576,-1.1572,-1.1568,-1.157,-1.1559,-1.1561,-1.155,-1.1551,-1.1545,-1.155,-1.155,-1.1547,-1.1545,-1.1548,-1.1548,-1.1547,-1.1545,-1.154,-1.154,-1.154,-1.154,0,-1.1601,-1.1594,-1.1598,-1.1591,-1.1589,-1.1594,-1.1588,-1.159,-1.1585,-1.1587,-1.1587,-1.1579,-1.158,-1.1572,-1.1571,-1.1567,-1.1575,-1.1571,-1.1576,-1.1575,-1.1584,-1.1583,-1.1613,-1.1617,-1.1586,-1.1586,-1.1587,0,-1.1614,-1.1618,-1.1611,-1.1612,-1.161,-1.1611,-1.1611,-1.1602,-1.1602,-1.1598,-1.1601,-1.1601,-1.1601,-1.1603,-1.1597,-1.1596,-1.1592,-1.1603,-1.1592,-1.1595,-1.1592,-1.1592,-1.1593,-1.1605,-1.1605,-1.1606,-1.1606,0,-1.1638,-1.1634,-1.1634,-1.1633,-1.1634,-1.1632,-1.163,-1.1632,-1.1622,-1.1623,-1.1624,-1.1623,-1.1623,-1.1623,-1.1622,-1.1619,-1.1611,-1.161,-1.1612,-1.1614,-1.1617,-1.1616,-1.1582,-1.1609,-1.1608,-1.1608,-1.1608,-1.1608,-1.1656,-1.1659,-1.1656,-1.1656,-1.1654,-1.1653,-1.1655,-1.165,-1.1651,-1.165,-1.1645,-1.1647,-1.1644,-1.1641,-1.1639,-1.1641,-1.1635,-1.1638,-1.1639,-1.164,-1.1641,-1.1617,-1.164,-1.164,-1.164,-1.164,-1.164,0,-1.168,-1.1677,-1.1678,-1.1676,-1.1676,-1.1669,-1.1667,-1.1668,-1.167,-1.1668,-1.1668,-1.167,-1.167,-1.1665,-1.1665,-1.1667,-1.1664,-1.1667,-1.1667,-1.1667,-1.1646,-1.1644,-1.167,-1.167,-1.167,-1.167,-1.167,-1.167,-1.1692,-1.1697,-1.1693,-1.1697,-1.1694,-1.1696,-1.1696,-1.1695,-1.1693,-1.1695,-1.1696,-1.1692,-1.1689,-1.1689,-1.1689,-1.1687,-1.1688,-1.1693,-1.169,-1.1671,-1.1668,-1.1665,-1.1663,-1.1693,-1.1693,-1.1711,-1.1711,-1.1711]},{"header":{"parameterUnit":"m.s-1","parameterCategory":1,"la1":30.2991,"la2":30.254,"lo1":-89.0895,"lo2":-89.0444,"dy":0.0017,"dx":0.0017,"nx":28,"ny":28,"refTime":"2024-04-25T03:00:00:Z","depth":0,"parameterNumber":3,"parameterNumberName":"V-component_of_WINDS"},"data":[0,0,0,0,0,0,0,0,0,0,0,0,0,0,0,0,0,0,0,0,0,0,0,0,0,0,0,0,0,0,0,0,0,0,0,0,0,0,0,0,0,0,0,0,0,0,0,0,0,0,0,0,0,0,0,0,0,0,3.413,3.4129,0,3.407,3.407,3.4069,3.3982,3.3981,3.3979,3.3978,3.3916,3.3916,3.3916,0,0,0,0,0,0,0,0,0,0,0,0,0,3.4168,3.4168,3.413,3.4129,3.4129,3.407,3.407,3.4069,3.3982,3.398,3.3979,3.3977,3.3917,3.3916,3.3916,0,0,0,0,0,0,0,0,0,0,0,0,0,3.4134,3.4168,3.413,3.4078,3.4073,3.4071,3.407,3.4069,3.3983,3.398,3.3978,3.3976,3.3917,3.3916,3.3916,3.3959,0,0,3.3915,3.3915,0,0,0,0,0,0,0,0,3.4136,3.4133,3.4087,3.4082,3.4076,3.4031,3.406,3.4032,3.3983,3.4017,3.3978,3.3975,3.3956,3.3953,3.3947,3.3956,3.3954,3.3915,3.3915,3.3915,3.3914,0,0,0,0,0,0,0,3.4139,3.4135,3.4106,3.4086,3.408,3.4058,3.4051,3.4055,3.4,3.4014,3.4007,3.4002,3.3953,3.3947,3.3944,3.3953,3.3915,3.3915,3.3914,3.3914,3.3994,3.3996,0,0,0,0,0,0,3.4149,3.4138,3.4108,3.4105,3.4101,3.4059,3.4051,3.4048,3.4,3.399,3.4004,3.3998,3.3949,3.3945,3.3942,3.3989,3.3915,3.3914,3.3914,3.3991,3.3994,3.3997,0,0,0,0,0,0,3.415,3.4147,3.4111,3.4119,3.4113,3.4061,3.4058,3.4048,3.4042,3.3992,3.3982,3.4008,3.3947,3.3942,3.3955,3.3985,3.3914,3.3914,3.3989,3.3992,3.3995,3.4083,0,0,0,0,0,0,3.4152,3.4148,3.4164,3.412,3.4113,3.4126,3.406,3.4048,3.4041,3.4033,3.3993,3.3984,3.3945,3.3956,3.3955,3.3984,3.3914,3.3986,3.399,3.3994,3.4077,3.4089,3.4099,0,0,0,0,0,3.4153,3.4192,3.4166,3.4163,3.4132,3.4128,3.4123,3.4077,3.4044,3.406,3.4028,3.3985,3.3982,3.3958,3.3956,3.3985,3.3984,3.3989,3.3994,3.4072,3.4087,3.4099,0,0,0,0,0,0,3.4241,3.4185,3.4156,3.4181,3.416,3.4113,3.4131,3.4094,3.4082,3.4074,3.4017,3.4009,3.4029,3.4008,3.3983,3.4024,3.3976,3.3981,3.4037,3.405,3.4061,3.4066,3.3913,0,0,0,0,0,3.4263,3.4264,3.4215,3.4242,3.4233,3.4184,3.4181,3.4147,3.4122,3.4113,3.4082,3.406,3.4053,3.405,3.4042,3.4074,3.4063,3.4092,3.4103,3.4113,3.4118,3.4132,3.4144,3.4014,3.4014,3.4014,0,0,3.4309,3.4279,3.4283,3.4259,3.4239,3.4241,3.4177,3.4182,3.4183,3.4114,3.4124,3.41,3.4071,3.4094,3.4102,3.4077,3.4151,3.4119,3.4127,3.4127,3.4138,3.4151,3.4162,3.4017,3.4017,3.4016,0,0,3.4394,3.4371,3.4391,3.4372,3.4341,3.4308,3.4313,3.4272,3.4253,3.4263,3.421,3.421,3.4201,3.4182,3.4172,3.4248,3.4209,3.4247,3.4305,3.4319,3.4329,3.4338,3.4365,3.4375,3.4252,3.4252,3.4253,0,3.4455,3.4456,3.4406,3.4414,3.4405,3.4341,3.4361,3.4344,3.4313,3.4308,3.428,3.4266,3.4243,3.4259,3.4278,3.4272,3.4275,3.4252,3.4332,3.434,3.4348,3.4372,3.4383,3.4257,3.4257,3.4256,3.4256,0,3.4533,3.4534,3.4554,3.4525,3.4517,3.4531,3.4483,3.4481,3.4448,3.4418,3.4427,3.4396,3.438,3.4381,3.4349,3.4393,3.4378,3.4342,3.4294,3.4366,3.4388,3.4397,3.4264,3.4262,3.4261,3.426,0,0,3.4672,3.4614,3.4622,3.4608,3.4569,3.4569,3.4579,3.4563,3.4563,3.4543,3.455,3.4543,3.4509,3.4497,3.4462,3.4475,3.4536,3.4436,3.4435,3.4456,3.4582,3.4609,3.4621,3.451,3.4511,3.4512,3.4584,0,3.4749,3.4764,3.4718,3.4744,3.4745,3.4684,3.4693,3.467,3.4642,3.4638,3.4606,3.4602,3.4558,3.455,3.456,3.4527,3.4561,3.4521,3.4515,3.4515,3.4524,3.4633,3.4662,3.4732,3.4593,3.4594,3.4595,0,3.4841,3.4826,3.4852,3.4811,3.481,3.4819,3.48,3.4797,3.4769,3.4747,3.4734,3.4692,3.4699,3.4652,3.466,3.4634,3.4628,3.4611,3.4613,3.4611,3.456,3.4634,3.4753,3.4763,3.4608,3.4607,3.4606,0,3.4939,3.4925,3.4939,3.4929,3.4881,3.4889,3.487,3.4839,3.4832,3.4816,3.481,3.4795,3.4786,3.4775,3.473,3.47,3.4742,3.4692,3.4724,3.4726,3.4736,3.4736,3.4856,3.4733,3.4733,3.4733,3.4733,0,3.503,3.5049,3.4983,3.4991,3.501,3.4957,3.4976,3.4951,3.4924,3.4926,3.4873,3.4875,3.4816,3.4812,3.4777,3.4788,3.4785,3.4767,3.4757,3.4772,3.4774,3.4768,3.4762,3.4736,3.4735,3.4734,3.4734,0,3.5144,3.51,3.5111,3.5065,3.5054,3.507,3.503,3.5035,3.5003,3.5006,3.5004,3.4954,3.4946,3.49,3.4882,3.4858,3.4882,3.4863,3.4891,3.4885,3.492,3.4917,3.504,3.5053,3.4922,3.4923,3.4924,0,3.5205,3.5217,3.5173,3.517,3.5153,3.515,3.5142,3.509,3.5084,3.5053,3.5062,3.505,3.5038,3.5028,3.499,3.4975,3.4955,3.4999,3.4952,3.4966,3.4955,3.4955,3.4956,3.5009,3.5011,3.5012,3.5013,0,3.5317,3.5295,3.5286,3.527,3.5262,3.5247,3.5228,3.5229,3.5171,3.5167,3.5159,3.5149,3.513,3.5119,3.5097,3.5076,3.5035,3.5028,3.5034,3.505,3.5066,3.5057,3.4918,3.5026,3.5024,3.5023,3.5023,3.5022,3.5406,3.5414,3.5384,3.5376,3.5356,3.5339,3.5342,3.531,3.5302,3.5283,3.5252,3.5248,3.5218,3.5185,3.5168,3.5163,3.5139,3.5149,3.5151,3.5154,3.5162,3.5066,3.5159,3.5158,3.5158,3.5157,3.5157,0,3.5516,3.5493,3.5486,3.5461,3.5455,3.5416,3.5393,3.539,3.5387,3.5363,3.5352,3.5342,3.533,3.529,3.5274,3.5277,3.5258,3.5275,3.5274,3.527,3.5184,3.518,3.5291,3.5291,3.5291,3.5291,3.5291,3.5291,3.5572,3.5584,3.5558,3.5559,3.5535,3.5531,3.5521,3.5505,3.5485,3.5476,3.5466,3.544,3.541,3.539,3.5377,3.5366,3.5362,3.5385,3.5368,3.5289,3.5276,3.5264,3.5259,3.5385,3.5385,3.5453,3.5454,3.5455]}]]